RYR6FG LIBR-LIMC

Flight info

Callsign RYR6FG
Flight time 1h 24m
Altitude 38000
Route FASAN DCT BAR DCT GENGI DCT GITOD DCT OKBIS DCT VERUN DCT LOMED/N0336F180 M730 MIVKI T648 MEBUR
Aircraft B38M/M-SADE3FGIJ1LRWY/SB1

Departure

Time 2026-04-23 15:22
Airport Brindisi Airport (LIBR)

Arrival

Time 2026-04-23 16:47
Airport Milan Malpensa International Airport (LIMC)
Time Latitude Longitude Altitude Speed Heading
2026-04-23 14:55 40.65785 17.94071 46 ft 0 kts 322°
2026-04-23 15:13 40.65784 17.94071 46 ft 2 kts 322°
2026-04-23 15:13 40.65771 17.94085 43 ft 4 kts 322°
2026-04-23 15:13 40.65746 17.94110 46 ft 3 kts 323°
2026-04-23 15:13 40.65723 17.94126 43 ft 4 kts 346°
2026-04-23 15:14 40.65699 17.94126 42 ft 4 kts 25°
2026-04-23 15:14 40.65679 17.94105 44 ft 2 kts 52°
2026-04-23 15:14 40.65691 17.94126 42 ft 4 kts 54°
2026-04-23 15:14 40.65705 17.94152 45 ft 1 kts 52°
2026-04-23 15:15 40.65706 17.94152 45 ft 0 kts 52°
2026-04-23 15:17 40.65708 17.94156 45 ft 2 kts 52°
2026-04-23 15:17 40.65727 17.94189 46 ft 8 kts 52°
2026-04-23 15:17 40.65774 17.94268 46 ft 14 kts 53°
2026-04-23 15:18 40.65841 17.94384 45 ft 16 kts 53°
2026-04-23 15:18 40.65876 17.94445 45 ft 4 kts 52°
2026-04-23 15:18 40.65903 17.94491 43 ft 9 kts 52°
2026-04-23 15:18 40.65962 17.94591 42 ft 18 kts 52°
2026-04-23 15:19 40.66025 17.94725 46 ft 16 kts 89°
2026-04-23 15:19 40.65955 17.94837 44 ft 12 kts 137°
2026-04-23 15:19 40.65885 17.94923 45 ft 14 kts 136°
2026-04-23 15:19 40.65812 17.95014 46 ft 15 kts 136°
2026-04-23 15:20 40.65756 17.95080 47 ft 17 kts 138°
2026-04-23 15:20 40.65661 17.95144 46 ft 7 kts 198°
2026-04-23 15:20 40.65644 17.95124 44 ft 0 kts 228°
2026-04-23 15:20 40.65643 17.95123 44 ft 1 kts 228°
2026-04-23 15:21 40.65620 17.95089 45 ft 10 kts 228°
2026-04-23 15:21 40.65589 17.94999 44 ft 11 kts 296°
2026-04-23 15:21 40.65674 17.94893 45 ft 32 kts 317°
2026-04-23 15:21 40.66028 17.94462 42 ft 104 kts 317°
2026-04-23 15:22 40.66699 17.93634 95 ft 154 kts 319°
2026-04-23 15:22 40.67484 17.92621 746 ft 159 kts 318°
2026-04-23 15:22 40.68294 17.91642 1679 ft 152 kts 322°
2026-04-23 15:22 40.69075 17.90733 2426 ft 151 kts 322°
2026-04-23 15:23 40.69893 17.89770 2853 ft 166 kts 322°
2026-04-23 15:23 40.70796 17.88701 3123 ft 183 kts 322°
2026-04-23 15:23 40.71789 17.87517 3275 ft 202 kts 321°
2026-04-23 15:23 40.72856 17.86194 3354 ft 219 kts 316°
2026-04-23 15:24 40.73685 17.84445 3408 ft 236 kts 297°
2026-04-23 15:24 40.74279 17.82407 4020 ft 240 kts 296°
2026-04-23 15:24 40.74890 17.80347 4824 ft 244 kts 296°
2026-04-23 15:24 40.75537 17.78199 5310 ft 261 kts 296°
2026-04-23 15:25 40.76233 17.75912 5818 ft 274 kts 296°
2026-04-23 15:25 40.76945 17.73580 6636 ft 275 kts 296°
2026-04-23 15:25 40.77669 17.71218 7362 ft 279 kts 296°
2026-04-23 15:25 40.78399 17.68841 8148 ft 281 kts 296°
2026-04-23 15:26 40.79134 17.66443 8910 ft 283 kts 296°
2026-04-23 15:26 40.79875 17.64028 9696 ft 285 kts 296°
2026-04-23 15:26 40.80622 17.61591 10354 ft 291 kts 296°
2026-04-23 15:26 40.81403 17.59045 10639 ft 309 kts 296°
2026-04-23 15:27 40.82225 17.56357 11027 ft 322 kts 295°
2026-04-23 15:27 40.83068 17.53598 11692 ft 325 kts 295°
2026-04-23 15:27 40.83919 17.50810 12388 ft 330 kts 295°
2026-04-23 15:27 40.84781 17.47979 13113 ft 334 kts 295°
2026-04-23 15:28 40.85653 17.45115 13851 ft 339 kts 295°
2026-04-23 15:28 40.86585 17.42241 14492 ft 341 kts 302°
2026-04-23 15:28 40.87814 17.39553 15171 ft 345 kts 304°
2026-04-23 15:28 40.89044 17.36808 15859 ft 349 kts 304°
2026-04-23 15:29 40.90275 17.34013 16552 ft 354 kts 304°
2026-04-23 15:29 40.91514 17.31173 17221 ft 359 kts 304°
2026-04-23 15:29 40.92764 17.28287 17868 ft 364 kts 304°
2026-04-23 15:29 40.94027 17.25360 18479 ft 369 kts 304°
2026-04-23 15:30 40.95304 17.22398 19011 ft 373 kts 304°
2026-04-23 15:30 40.96596 17.19395 19553 ft 377 kts 304°
2026-04-23 15:30 40.97901 17.16359 20083 ft 381 kts 304°
2026-04-23 15:30 40.99217 17.13293 20594 ft 385 kts 305°
2026-04-23 15:31 41.00547 17.10191 21117 ft 389 kts 305°
2026-04-23 15:31 41.01890 17.07056 21631 ft 393 kts 305°
2026-04-23 15:31 41.03244 17.03892 22146 ft 397 kts 305°
2026-04-23 15:31 41.04608 17.00702 22662 ft 400 kts 306°
2026-04-23 15:32 41.05987 16.97473 23184 ft 404 kts 306°
2026-04-23 15:32 41.07376 16.94217 23682 ft 408 kts 306°
2026-04-23 15:32 41.08775 16.90931 24113 ft 411 kts 306°
2026-04-23 15:32 41.10185 16.87620 24550 ft 414 kts 306°
2026-04-23 15:33 41.11607 16.84275 24972 ft 418 kts 306°
2026-04-23 15:33 41.13037 16.80911 25403 ft 421 kts 306°
2026-04-23 15:33 41.14448 16.77484 25816 ft 427 kts 301°
2026-04-23 15:33 41.15699 16.73896 26243 ft 430 kts 301°
2026-04-23 15:34 41.16955 16.70335 26644 ft 433 kts 301°
2026-04-23 15:34 41.18246 16.66707 27050 ft 436 kts 301°
2026-04-23 15:34 41.19549 16.63061 27446 ft 439 kts 301°
2026-04-23 15:34 41.20861 16.59386 27830 ft 442 kts 301°
2026-04-23 15:35 41.22184 16.55684 28210 ft 445 kts 301°
2026-04-23 15:35 41.23513 16.51956 28608 ft 448 kts 301°
2026-04-23 15:35 41.24850 16.48199 28981 ft 451 kts 301°
2026-04-23 15:35 41.26193 16.44425 29360 ft 454 kts 301°
2026-04-23 15:36 41.27544 16.40623 29726 ft 456 kts 301°
2026-04-23 15:36 41.28902 16.36795 30088 ft 459 kts 301°
2026-04-23 15:36 41.30266 16.32945 30405 ft 461 kts 301°
2026-04-23 15:36 41.31633 16.29081 30733 ft 463 kts 301°
2026-04-23 15:37 41.33004 16.25198 31072 ft 464 kts 301°
2026-04-23 15:37 41.34376 16.21309 31407 ft 465 kts 300°
2026-04-23 15:37 41.35751 16.17406 31727 ft 466 kts 300°
2026-04-23 15:37 41.37129 16.13492 32042 ft 468 kts 300°
2026-04-23 15:38 41.38509 16.09565 32359 ft 469 kts 300°
2026-04-23 15:38 41.39893 16.05619 32663 ft 470 kts 300°
2026-04-23 15:38 41.41278 16.01667 32953 ft 472 kts 300°
2026-04-23 15:38 41.42668 15.97695 33241 ft 474 kts 300°
2026-04-23 15:39 41.44060 15.93709 33527 ft 475 kts 300°
2026-04-23 15:39 41.45456 15.89708 33811 ft 477 kts 300°
2026-04-23 15:39 41.46853 15.85698 34155 ft 477 kts 300°
2026-04-23 15:39 41.48245 15.81697 34479 ft 475 kts 300°
2026-04-23 15:40 41.49632 15.77703 34822 ft 474 kts 300°
2026-04-23 15:40 41.51013 15.73721 35172 ft 472 kts 299°
2026-04-23 15:40 41.52387 15.69755 35519 ft 470 kts 299°
2026-04-23 15:40 41.53735 15.65859 35858 ft 468 kts 299°
2026-04-23 15:41 41.55115 15.61864 36196 ft 467 kts 299°
2026-04-23 15:41 41.56452 15.57988 36511 ft 465 kts 299°
2026-04-23 15:41 41.57801 15.54073 36824 ft 464 kts 299°
2026-04-23 15:41 41.59145 15.50165 37144 ft 462 kts 298°
2026-04-23 15:42 41.60485 15.46266 37427 ft 461 kts 298°
2026-04-23 15:42 41.61817 15.42382 37716 ft 460 kts 298°
2026-04-23 15:42 41.63146 15.38501 37995 ft 458 kts 298°
2026-04-23 15:42 41.64471 15.34631 38163 ft 458 kts 298°
2026-04-23 15:43 41.65795 15.30755 38144 ft 457 kts 298°
2026-04-23 15:43 41.68423 15.23044 38146 ft 455 kts 298°
2026-04-23 15:44 41.71047 15.15326 38146 ft 456 kts 298°
2026-04-23 15:44 41.73666 15.07600 38146 ft 456 kts 298°
2026-04-23 15:45 41.76282 14.99863 38149 ft 456 kts 298°
2026-04-23 15:45 41.78892 14.92119 38151 ft 456 kts 298°
2026-04-23 15:46 41.81498 14.84367 38154 ft 456 kts 298°
2026-04-23 15:46 41.84101 14.76602 38143 ft 457 kts 298°
2026-04-23 15:47 41.86700 14.68827 38152 ft 457 kts 298°
2026-04-23 15:47 41.89293 14.61047 38152 ft 456 kts 298°
2026-04-23 15:48 41.91881 14.53261 38153 ft 457 kts 298°
2026-04-23 15:48 41.94467 14.45460 38161 ft 457 kts 297°
2026-04-23 15:49 41.97048 14.37650 38151 ft 457 kts 297°
2026-04-23 15:49 41.99622 14.29836 38159 ft 458 kts 297°
2026-04-23 15:50 42.02194 14.22010 38161 ft 458 kts 297°
2026-04-23 15:50 42.04764 14.14167 38163 ft 458 kts 297°
2026-04-23 15:51 42.07327 14.06324 38160 ft 458 kts 297°
2026-04-23 15:51 42.09885 13.98469 38174 ft 458 kts 297°
2026-04-23 15:52 42.12420 13.90665 38159 ft 458 kts 297°
2026-04-23 15:52 42.14968 13.82800 38154 ft 458 kts 297°
2026-04-23 15:53 42.17172 13.75975 38158 ft 458 kts 297°
2026-04-23 15:53 42.19711 13.68093 38154 ft 459 kts 297°
2026-04-23 15:54 42.22243 13.60209 38157 ft 457 kts 296°
2026-04-23 15:54 42.24766 13.52329 38149 ft 457 kts 296°
2026-04-23 15:55 42.27277 13.44466 38142 ft 456 kts 296°
2026-04-23 15:55 42.29782 13.36602 38122 ft 455 kts 296°
2026-04-23 15:56 42.32277 13.28751 38129 ft 455 kts 296°
2026-04-23 15:56 42.34768 13.20890 38111 ft 455 kts 296°
2026-04-23 15:57 42.37255 13.13018 38107 ft 455 kts 296°
2026-04-23 15:57 42.39864 13.05241 38089 ft 451 kts 307°
2026-04-23 15:58 42.43620 12.98510 38111 ft 450 kts 309°
2026-04-23 15:58 42.47340 12.91687 38094 ft 450 kts 309°
2026-04-23 15:59 42.51054 12.84861 38104 ft 450 kts 309°
2026-04-23 15:59 42.54768 12.78020 38099 ft 450 kts 309°
2026-04-23 16:00 42.58475 12.71176 38104 ft 450 kts 309°
2026-04-23 16:00 42.62157 12.64363 38111 ft 450 kts 309°
2026-04-23 16:01 42.65857 12.57502 38102 ft 450 kts 309°
2026-04-23 16:01 42.69554 12.50630 38127 ft 451 kts 309°
2026-04-23 16:02 42.73250 12.43744 38125 ft 450 kts 308°
2026-04-23 16:02 42.76937 12.36860 38127 ft 450 kts 308°
2026-04-23 16:03 42.80736 12.30017 38137 ft 448 kts 312°
2026-04-23 16:03 42.84693 12.23510 38140 ft 449 kts 311°
2026-04-23 16:04 42.88647 12.16919 38148 ft 449 kts 311°
2026-04-23 16:04 42.92595 12.10316 38143 ft 449 kts 311°
2026-04-23 16:05 42.95899 12.04778 38147 ft 449 kts 311°
2026-04-23 16:05 42.98639 12.00578 38142 ft 444 kts 323°
2026-04-23 16:05 43.01217 11.98338 38165 ft 437 kts 340°
2026-04-23 16:05 43.04108 11.97157 38164 ft 434 kts 352°
2026-04-23 16:06 43.07087 11.96411 38146 ft 436 kts 352°
2026-04-23 16:06 43.12099 11.95307 38154 ft 436 kts 353°
2026-04-23 16:07 43.18095 11.94098 38160 ft 435 kts 354°
2026-04-23 16:07 43.24046 11.92937 38159 ft 435 kts 354°
2026-04-23 16:07 43.26993 11.91974 38143 ft 437 kts 340°
2026-04-23 16:08 43.29646 11.89929 38179 ft 441 kts 324°
2026-04-23 16:08 43.34376 11.84491 38163 ft 444 kts 322°
2026-04-23 16:09 43.39040 11.78908 38172 ft 445 kts 321°
2026-04-23 16:09 43.43671 11.73280 38173 ft 444 kts 321°
2026-04-23 16:10 43.48288 11.67649 38164 ft 443 kts 321°
2026-04-23 16:10 43.52894 11.62020 38158 ft 442 kts 321°
2026-04-23 16:11 43.57493 11.56386 38171 ft 442 kts 321°
2026-04-23 16:11 43.62083 11.50752 38161 ft 441 kts 321°
2026-04-23 16:12 43.66663 11.45116 38151 ft 441 kts 321°
2026-04-23 16:12 43.71237 11.39478 38129 ft 440 kts 321°
2026-04-23 16:13 43.75803 11.33837 38142 ft 440 kts 321°
2026-04-23 16:13 43.82632 11.25377 38129 ft 439 kts 321°
2026-04-23 16:14 43.87150 11.19766 38131 ft 439 kts 321°
2026-04-23 16:14 43.91720 11.14079 38131 ft 438 kts 321°
2026-04-23 16:15 43.96224 11.08461 38137 ft 438 kts 321°
2026-04-23 16:15 44.00728 11.02773 38160 ft 439 kts 316°
2026-04-23 16:16 44.02521 10.99331 38151 ft 443 kts 299°
2026-04-23 16:16 44.03643 10.95339 38187 ft 447 kts 291°
2026-04-23 16:16 44.05550 10.87089 38199 ft 448 kts 290°
2026-04-23 16:17 44.07346 10.78871 37941 ft 438 kts 289°
2026-04-23 16:17 44.08219 10.74813 37247 ft 438 kts 289°
2026-04-23 16:17 44.09079 10.70793 37160 ft 430 kts 289°
2026-04-23 16:18 44.10796 10.62748 37196 ft 439 kts 289°
2026-04-23 16:18 44.12528 10.54508 37198 ft 447 kts 289°
2026-04-23 16:19 44.14254 10.46241 37088 ft 437 kts 289°
2026-04-23 16:19 44.15093 10.42211 36663 ft 432 kts 289°
2026-04-23 16:19 44.15925 10.38212 36128 ft 429 kts 289°
2026-04-23 16:20 44.16757 10.34227 35580 ft 427 kts 289°
2026-04-23 16:20 44.17589 10.30263 35017 ft 426 kts 289°
2026-04-23 16:20 44.18412 10.26321 34548 ft 422 kts 289°
2026-04-23 16:20 44.19230 10.22402 34051 ft 420 kts 289°
2026-04-23 16:21 44.20040 10.18510 33504 ft 417 kts 289°
2026-04-23 16:21 44.20843 10.14645 33011 ft 413 kts 289°
2026-04-23 16:21 44.21638 10.10812 32536 ft 409 kts 289°
2026-04-23 16:21 44.22567 10.07102 32014 ft 402 kts 301°
2026-04-23 16:22 44.24113 10.03903 31526 ft 396 kts 309°
2026-04-23 16:22 44.25689 10.00776 31116 ft 392 kts 307°
2026-04-23 16:22 44.27246 9.97677 30692 ft 388 kts 308°
2026-04-23 16:22 44.28275 9.95646 30409 ft 386 kts 308°
2026-04-23 16:23 44.30344 9.91581 29778 ft 382 kts 308°
2026-04-23 16:23 44.31880 9.88569 29328 ft 379 kts 308°
2026-04-23 16:23 44.33398 9.85592 28920 ft 375 kts 308°
2026-04-23 16:23 44.34902 9.82638 28520 ft 370 kts 308°
2026-04-23 16:24 44.36388 9.79719 28124 ft 367 kts 308°
2026-04-23 16:24 44.37839 9.76864 27713 ft 363 kts 307°
2026-04-23 16:24 44.39312 9.73965 27337 ft 360 kts 307°
2026-04-23 16:24 44.40755 9.71120 26963 ft 357 kts 307°
2026-04-23 16:25 44.42165 9.68338 26601 ft 354 kts 307°
2026-04-23 16:25 44.43581 9.65543 26226 ft 351 kts 307°
2026-04-23 16:25 44.45005 9.62730 25847 ft 348 kts 308°
2026-04-23 16:25 44.46567 9.60233 25435 ft 344 kts 319°
2026-04-23 16:26 44.48274 9.57901 25108 ft 341 kts 316°
2026-04-23 16:26 44.49924 9.55539 24778 ft 338 kts 316°
2026-04-23 16:26 44.51551 9.53185 24435 ft 335 kts 315°
2026-04-23 16:26 44.53162 9.50835 24085 ft 333 kts 315°
2026-04-23 16:27 44.54755 9.48502 23749 ft 330 kts 315°
2026-04-23 16:27 44.56334 9.46184 23351 ft 328 kts 315°
2026-04-23 16:27 44.57898 9.43883 22992 ft 324 kts 315°
2026-04-23 16:27 44.59442 9.41611 22661 ft 320 kts 315°
2026-04-23 16:28 44.60967 9.39363 22330 ft 316 kts 315°
2026-04-23 16:28 44.62473 9.37142 22002 ft 312 kts 315°
2026-04-23 16:28 44.63959 9.34949 21681 ft 308 kts 315°
2026-04-23 16:28 44.65427 9.32782 21369 ft 304 kts 316°
2026-04-23 16:29 44.66873 9.30643 21072 ft 301 kts 315°
2026-04-23 16:29 44.68323 9.28499 20757 ft 305 kts 316°
2026-04-23 16:29 44.69794 9.26321 20438 ft 310 kts 315°
2026-04-23 16:29 44.71281 9.24119 20117 ft 311 kts 315°
2026-04-23 16:30 44.72772 9.21908 19802 ft 311 kts 315°
2026-04-23 16:30 44.74254 9.19709 19484 ft 309 kts 315°
2026-04-23 16:30 44.75717 9.17509 19151 ft 308 kts 312°
2026-04-23 16:30 44.76888 9.14978 18813 ft 309 kts 303°
2026-04-23 16:31 44.77971 9.12372 18516 ft 307 kts 303°
2026-04-23 16:31 44.79047 9.09796 18188 ft 304 kts 303°
2026-04-23 16:31 44.80108 9.07251 17960 ft 299 kts 303°
2026-04-23 16:31 44.81153 9.04743 17685 ft 295 kts 303°
2026-04-23 16:32 44.82192 9.02247 17360 ft 297 kts 303°
2026-04-23 16:32 44.83243 8.99721 17051 ft 302 kts 303°
2026-04-23 16:32 44.84307 8.97159 16737 ft 303 kts 303°
2026-04-23 16:32 44.85371 8.94596 16420 ft 303 kts 303°
2026-04-23 16:33 44.86428 8.92049 16104 ft 300 kts 303°
2026-04-23 16:33 44.87476 8.89518 15779 ft 298 kts 303°
2026-04-23 16:33 44.88659 8.87163 15445 ft 292 kts 320°
2026-04-23 16:33 44.90348 8.85693 15075 ft 283 kts 344°
2026-04-23 16:34 44.92246 8.85364 14772 ft 270 kts
2026-04-23 16:34 44.94087 8.85478 14481 ft 260 kts
2026-04-23 16:34 44.95859 8.85601 14206 ft 251 kts
2026-04-23 16:34 44.97569 8.85712 13933 ft 241 kts
2026-04-23 16:35 44.99218 8.85816 13641 ft 233 kts
2026-04-23 16:35 45.00822 8.85915 13203 ft 231 kts
2026-04-23 16:35 45.02422 8.86009 12745 ft 230 kts
2026-04-23 16:35 45.04014 8.86103 12290 ft 229 kts
2026-04-23 16:36 45.05602 8.86195 11848 ft 228 kts
2026-04-23 16:36 45.07183 8.86285 11430 ft 227 kts
2026-04-23 16:36 45.08756 8.86371 10991 ft 226 kts
2026-04-23 16:36 45.10323 8.86459 10583 ft 224 kts
2026-04-23 16:37 45.11855 8.86836 10146 ft 223 kts 12°
2026-04-23 16:37 45.13399 8.87025 9714 ft 223 kts 360°
2026-04-23 16:37 45.14949 8.86942 9258 ft 222 kts 358°
2026-04-23 16:37 45.16487 8.86838 8842 ft 220 kts 358°
2026-04-23 16:38 45.18014 8.86737 8429 ft 219 kts 358°
2026-04-23 16:38 45.19529 8.86644 8030 ft 217 kts 358°
2026-04-23 16:38 45.21037 8.86553 7635 ft 216 kts 358°
2026-04-23 16:38 45.22536 8.86470 7263 ft 216 kts 358°
2026-04-23 16:39 45.24010 8.86117 6939 ft 216 kts 335°
2026-04-23 16:39 45.25303 8.85044 6679 ft 215 kts 333°
2026-04-23 16:39 45.26636 8.84091 6475 ft 214 kts 335°
2026-04-23 16:39 45.27347 8.83605 6415 ft 214 kts 335°
2026-04-23 16:40 45.28733 8.82663 6304 ft 214 kts 335°
2026-04-23 16:40 45.30080 8.81748 6163 ft 214 kts 337°
2026-04-23 16:40 45.31490 8.81111 6006 ft 213 kts 350°
2026-04-23 16:40 45.32945 8.80804 5922 ft 212 kts 352°
2026-04-23 16:41 45.34407 8.80514 5739 ft 212 kts 352°
2026-04-23 16:41 45.35864 8.80216 5573 ft 211 kts 352°
2026-04-23 16:41 45.37320 8.79925 5372 ft 212 kts 352°
2026-04-23 16:41 45.38779 8.79638 5066 ft 211 kts 352°
2026-04-23 16:42 45.40100 8.79460 4785 ft 211 kts 356°
2026-04-23 16:42 45.41564 8.79238 4490 ft 212 kts 351°
2026-04-23 16:42 45.43011 8.78869 4303 ft 213 kts 349°
2026-04-23 16:42 45.44467 8.78462 4076 ft 213 kts 349°
2026-04-23 16:43 45.45920 8.78061 3823 ft 212 kts 349°
2026-04-23 16:43 45.47372 8.77659 3553 ft 213 kts 349°
2026-04-23 16:43 45.48823 8.77262 3258 ft 213 kts 349°
2026-04-23 16:43 45.50268 8.76865 2988 ft 208 kts 349°
2026-04-23 16:44 45.51665 8.76479 2714 ft 201 kts 349°
2026-04-23 16:44 45.52994 8.76114 2451 ft 188 kts 349°
2026-04-23 16:44 45.54248 8.75769 2225 ft 179 kts 349°
2026-04-23 16:44 45.55448 8.75441 1970 ft 170 kts 349°
2026-04-23 16:45 45.56567 8.75129 1759 ft 159 kts 349°
2026-04-23 16:45 45.57643 8.74833 1554 ft 156 kts 348°
2026-04-23 16:45 45.58710 8.74538 1323 ft 156 kts 348°
2026-04-23 16:45 45.59777 8.74245 1108 ft 157 kts 348°
2026-04-23 16:46 45.60847 8.73950 901 ft 157 kts 348°
2026-04-23 16:46 45.61913 8.73657 747 ft 152 kts 348°
2026-04-23 16:46 45.62807 8.73408 740 ft 99 kts 349°
2026-04-23 16:46 45.63296 8.73277 739 ft 53 kts 350°
2026-04-23 16:47 45.63626 8.73163 741 ft 46 kts 339°
2026-04-23 16:47 45.63793 8.72965 739 ft 30 kts 307°
2026-04-23 16:47 45.63884 8.72773 738 ft 23 kts 304°
2026-04-23 16:47 45.63953 8.72580 737 ft 22 kts 276°
2026-04-23 16:48 45.63930 8.72362 738 ft 23 kts 259°
2026-04-23 16:48 45.63909 8.72128 740 ft 24 kts 265°
2026-04-23 16:48 45.63895 8.71889 740 ft 17 kts 253°
2026-04-23 16:48 45.63798 8.71824 738 ft 18 kts 171°
2026-04-23 16:49 45.63711 8.71850 738 ft 20 kts 168°
2026-04-23 16:49 45.63521 8.71901 739 ft 22 kts 170°
2026-04-23 16:49 45.63397 8.71932 739 ft 24 kts 169°
2026-04-23 16:49 45.63241 8.71976 739 ft 21 kts 167°
2026-04-23 16:50 45.63090 8.72023 738 ft 21 kts 168°
2026-04-23 16:50 45.62954 8.72058 739 ft 21 kts 169°
2026-04-23 16:50 45.62826 8.72092 739 ft 18 kts 169°
2026-04-23 16:50 45.62701 8.72100 738 ft 17 kts 217°
2026-04-23 16:51 45.62670 8.71986 739 ft 13 kts 259°
2026-04-23 16:51 45.62658 8.71854 739 ft 10 kts 282°
2026-04-23 16:51 45.62688 8.71819 739 ft 5 kts 349°
2026-04-23 16:51 45.62730 8.71807 739 ft 7 kts 349°
2026-04-23 16:52 45.62790 8.71791 739 ft 10 kts 349°
2026-04-23 16:52 45.62833 8.71770 737 ft 1 kts 307°
2026-04-23 16:52 45.62834 8.71760 738 ft 2 kts 275°
2026-04-23 16:52 45.62831 8.71733 739 ft 2 kts 260°
2026-04-23 16:53 45.62827 8.71702 737 ft 4 kts 259°
2026-04-23 16:53 45.62823 8.71670 738 ft 0 kts 259°